Weather in Dawson

Canada     64°03′40″N   139°25′48″W
temp.,
°C
wind,
m/s
gust,
m/s
humid.,
%
clouds,
%
prec.,
mm/h
press.,
hPa
HPBL,
m
22 january, sat
sat2223:00−24ese1110076 0.0 10139
02:00−22ese11100100 0.0 10129
05:00−21se1199100 0.0 10129
08:00−21wnw0099100 0.0 101210
11:00−18sse1198100 0.1 101123
14:00−13ese1194100 0.0 101066
17:00−13e1197100 0.0 101015
20:00−16ssw119863 0.0 10119
23 january, sun
sun2323:00−14ese119892 0.0 101214
02:00−14s1198100 0.0 101315
05:00−15ssw1199100 0.0 101511
08:00−19ssw11100100 0.0 10179
11:00−18sw119999 0.1 102010
14:00−13ssw119878 0.1 102130
17:00−16sw119967 0.1 10239
20:00−19ssw0110091 0.0 10259
24 january, mon
mon2423:00−20s00100100 0.1 10269
02:00−20se1110098 0.1 102510
05:00−12ese1197100 0.1 102146
08:00−12e1199100 0.1 101712
11:00−10e1297100 0.1 101559
14:00−8sse1296100 0.1 101393
17:00−10se1198100 0.1 101114
20:00−12se1198100 0.0 101011
25 january, tue
tue2523:00−12ese1199100 0.1 100812
02:00−13sse1198100 0.0 100810
05:00−16s1199100 0.1 100911
08:00−20ssw1110080 0.0 101210
11:00−21sw1110094 0.1 10159
14:00−15se009990 0.0 101539
17:00−18nne009963 0.1 10179
20:00−20s00100100 0.0 10209
26 january, wed
wed2623:00−14ne0196100 0.8 101956
02:00−17sse0099100 0.4 10229
05:00−17wsw0099100 0.5 102417
08:00−18nnw00100100 0.1 102610
11:00−17nnw1199100 0.1 102717
14:00−14n1195100 0.5 1027126
17:00−14nnw119895 0.8 102843
20:00−21nnw1110079 0.1 103110